Location: Lake Arresoe
(56.0000°N, 12.5000°E)
Time: 22:33:35
(UTC+01:00)

NOAA 16 DEB - Visible Passes

Search period start: 22 January 2022 00:00
Search period end: 01 February 2022 00:00
Orbit: 741 x 811 km, 99.0° (Epoch: 21 January)

Date Brightness Start Highest point End Pass type
(mag) Time Alt. Az. Time Alt. Az. Time Alt. Az.
22 Jan ? 17:04:34 10° NNE 17:09:27 51° E 17:14:22 10° S visible
22 Jan ? 18:44:02 10° N 18:48:30 34° WNW 18:53:00 10° WSW visible
23 Jan ? 18:10:11 10° N 18:15:05 56° WNW 18:20:00 10° SW visible
23 Jan ? 19:50:37 10° NNW 19:53:20 15° NW 19:56:03 10° WNW visible
24 Jan ? 17:36:28 10° NNE 17:41:30 85° ESE 17:46:34 10° SSW visible
24 Jan ? 19:16:21 10° N 19:20:10 23° NW 19:24:00 10° WSW visible
25 Jan ? 17:02:54 10° NNE 17:07:47 49° E 17:12:41 10° S visible
25 Jan ? 18:42:20 10° N 18:46:51 35° WNW 18:51:25 10° WSW visible
25 Jan ? 20:24:26 10° NNW 20:24:44 10° NW 20:25:03 10° NW visible
26 Jan ? 18:08:28 10° NNE 18:13:23 59° WNW 18:18:22 10° SW visible
26 Jan ? 19:48:51 10° N 19:51:41 15° NW 19:54:32 10° W visible
27 Jan ? 17:34:44 10° NNE 17:39:47 82° ESE 17:44:54 10° SSW visible
27 Jan ? 19:14:34 10° N 19:18:28 23° NW 19:22:24 10° WSW visible
28 Jan ? 18:40:33 10° N 18:45:08 37° WNW 18:49:45 10° SW visible
28 Jan ? 20:22:09 10° NNW 20:23:02 10° NW 20:23:56 10° NW visible
29 Jan ? 18:06:41 10° NNE 18:11:38 61° WNW 18:16:40 10° SW visible
29 Jan ? 19:46:59 10° N 19:49:57 16° NW 19:52:55 10° W visible
30 Jan ? 17:32:56 10° NNE 17:38:00 80° ESE 17:43:08 10° SSW visible
30 Jan ? 19:12:44 10° N 19:16:42 24° NW 19:20:44 10° WSW visible
31 Jan ? 18:38:42 10° N 18:43:20 38° WNW 18:48:02 10° SW visible
31 Jan ? 20:20:01 10° NNW 20:21:16 11° NW 20:22:32 10° NW visible
